Location: Newark
(46.1292°N, 1.0086°W)
Time: 02:54:27
(UTC+00:00)

Vanguard 3 - Pass Details

Date: 18 November 2019
Orbit: 507 x 3263 km, 33.3° (Epoch: 05 December)

Event Time Altitude Azimuth Distance (km) Brightness Sun altitude
Rises 15:44:59 0° 250° (WSW) 7,189 13.8 5.7°
Reaches altitude 10° 15:50:00 10° 246° (WSW) 6,202 13.9 5.0°
Maximum altitude 16:08:28 52° 179° (S) 3,308 10.6 2.3°
Drops below altitude 10° 16:21:34 10° 109° (ESE) 4,538 10.6 0.4°
Sets 16:24:36 0° 104° (ESE) 5,217 10.8 -0.1°
